sat.trackr.live / text

‹ back to catalog

STARLINK-30354

NORAD 57772 · 2023-134B

PAYLOAD ACTIVE UNKNOWN

§ Identity

Operator
Country
US
Launch date
2023-09-04
Launch site
AFETR
Launch vehicle
Mass (kg)
RCS (m²)

Purposes: comms

External: N2YO · Heavens-Above · Gunter

§ Orbital elements

Epoch: 2026-09-20T04:06:18.826272Z

Period
94.27 min
Inclination
43.0016°
Eccentricity
0.0001425
Mean motion
15.27579137 rev/d
Perigee alt
482.1 km
Apogee alt
484.0 km
Semi-major
6,861.2 km
B*
1.1789e-5
RAAN
179.2760°
Arg perigee
266.9925°
Mean anomaly
93.0763°
Rev number
16,921

§ Raw data

STARLINK-303541 57772U 23134B   26263.17105123  .00000062  00000+0  11789-4 0  99972 57772  43.0016 179.2760 0001425 266.9925  93.0763 15.27579137169211

JSON: /api/v1/satellites/57772 · /tle

For live sub-satellite position, see the globe view (requires WebGL).

§ Visibility from observer

Set your observer location to see the next 7 days of passes ≥ 10°. The values pass through the URL so the page stays shareable.

No JS? Fill the form by hand. The geolocation button needs JavaScript.